User: anonymous   Login
Location: Unspecified
(0.0000°N, 0.0000°E)
Time: 20:05:55
(UTC+00:00)
Language:

STARLINK-30764 - Orbit

View from above orbital plane
View from above orbital plane
View from above satellite
View from above satellite

Ground track
Ground track

The orbit is defined by the following mean orbital elements,

1 58170U          26145.51610488 +.00000000 +00000-0 +14066-4 0 00006
2 58170  53.1618 222.6308 0001138  77.1322 282.9805 15.30192631    00
Epoch (UTC): 25 May 2026 12:23:11
Eccentricity: 0.0001138
inclination: 53.1618°
perigee height: 474 km
apogee height: 476 km
right ascension of ascending node: 222.6308°
argument of perigee: 77.1322°
revolutions per day: 15.30192631
mean anomaly at epoch: 282.9805°

The dashed part of the orbit path shows where the satellite is in the earth's shadow,  

DLR